FENGYUN 1C DEB, 31360

Orbit data source: Space-Track

FENGYUN 1C DEB, 31360 is space debris in SSO originally from a launch on Mon, 10 May 1999 UTC launched from the Taiyaun Space Center, China (TSC). Fengyun 1C debris stems from the Chinese weather satellite Fengyun-1C, which was intentionally destroyed by a Chinese anti-satellite missile in 2007. This event dramatically increased the amount of space debris, with thousands of trackable fragments posing hazards to satellites and human spaceflight. The Fengyun 1C debris cloud has become a focal point in discussions about space sustainability and the need for international regulations to prevent the creation of new debris.

Loading next visibility...
Identifier
31360, 1999-025BRQ
Orbit
SSO
Country
Flag of CNCN / PRC
Related business
Manufacturer
Unknown
Mission
Spacecraft
Bus & Motor
Unknown
Mass
Unknown
Launch date (UTC)
1999-05-10 (27 years ago)
Launch vehicle
Unknown
Launch site
Taiyaun Space Center, China (TSC)
Object type
Payload
Rocket body
Debris
Shape & HBR
Unknown shape, 1.1 m
Radar Cross Section
Medium (>0.1 m² and <1 m²)

Expand to show TLE details & history
Last TLE update: 2 weeks ago

TLE from 2 weeks ago
0 FENGYUN 1C DEB
1 31360U 99025BRQ 26154.80232727  .00004228  00000-0  21110-2 0  9990
2 31360  97.9967 359.8575 0103345  86.0855 275.2128 14.14525065656447
Epoch: 2026-06-03T19:15Z
TLE epoch observation values (Epoch: 2026-06-03T19:15:21.076Z)
Latitude
0.00001°
Longitude
178.76396°
Altitude
840.841 km
Speed
7.435 km/s
True Right ascension
23h 59m 25s
True Declination
0° 00' 00"
Sunlit
Object was in daylight at epoch
Visualization orbit readout
Latitude
Unknown
Longitude
Unknown
Altitude
Unknown
Speed
Unknown
Apparent Right ascension
Unknown
Apparent Declination
Unknown
Sunlit
N/A
Visualization observer readout
Local Sidereal Time
13:13:36
Azimuth
Unknown
Elevation
Unknown
Doppler factor
Unknown
Orbital elements
Apogee altitude
915.668 km
Perigee altitude
766.454 km
Semi-major axis
7,219.198 km
Eccentricity
0.01033
Inclination
97.9967°
RAAN
359.8575°
Arg. of periapsis
86.0855°
True anomaly
274.03215°
Mean anomaly
275.2128°
Eccentric anomaly
274.6226°
Mean motion
3.53842 °/min
Orbital period
101.74 mins
BSTAR
0.002111
Loading maneuver chart data...
Computing Atmospheric mass density...

Documentation

Showing up to 5 results
|